Estación meteorológica de Susqueda - Veïnat del Far (La Selva, La Selva)

Consulta los datos en tiempo real de la estación meteorológica de Susqueda - Veïnat del Far





Hora UTC 10:40
Temperatura 15.7 ºC
Humedad 75.0 %
Presión 1010.6 hPa
Pluja 0.2 mm
Velocidad viento 3.2 km/h
Dirección viento N

Datos diarios 2026-05-04



Hora UTC (invierno +1h; verano +2h)
Temperatura (ºC) Humedad (%) Presión (hPa) Velocidad viento (km/h) Precipitación (mm)
Hora UTC Aire Humedad Presión Vel. Dir. Vel. Max Dir. Intent. máx 5 min.
00:05 9.5 94.0 1011.9 6.4 N 6.4 0.0
00:10 9.5 94.0 1011.9 3.2 N 8.0 0.0
00:15 9.4 94.0 1011.7 4.8 N 8.0 0.0
00:20 9.4 94.0 1011.6 8.0 N 9.7 0.0
00:25 9.4 94.0 1011.5 4.8 N 9.7 0.0
00:30 9.3 94.0 1011.4 8.0 N 11.3 0.0
00:35 9.2 94.0 1011.3 9.7 N 11.3 0.0
00:40 9.2 94.0 1011.2 4.8 N 11.3 0.0
00:45 9.2 94.0 1011.3 3.2 N 9.7 0.0
00:50 9.3 94.0 1011.4 4.8 N 8.0 0.0
00:55 9.3 94.0 1011.4 6.4 N 9.7 0.0
01:00 9.3 94.0 1011.2 4.8 N 8.0 0.0
01:05 9.4 94.0 1011.2 4.8 N 9.7 0.0
01:10 9.3 94.0 1011.2 6.4 N 11.3 0.0
01:15 9.3 94.0 1011.2 4.8 N 11.3 0.0
01:20 9.3 94.0 1011.1 4.8 N 8.0 0.0
01:25 9.3 94.0 1011.1 3.2 N 6.4 0.0
01:30 9.2 94.0 1011.1 0.0 N 6.4 0.0
01:35 9.2 94.0 1011.1 4.8 N 6.4 0.0
01:40 9.2 94.0 1011.2 4.8 N 9.7 0.0
01:45 9.2 94.0 1011.3 3.2 N 9.7 0.0
01:50 9.2 94.0 1011.2 0.0 N 8.0 0.0
01:55 9.2 94.0 1011.1 3.2 N 6.4 0.0
02:00 9.2 94.0 1011.0 1.6 N 6.4 0.0
02:05 9.2 94.0 1011.0 3.2 N 6.4 0.0
02:10 9.1 94.0 1011.0 6.4 N 8.0 0.0
02:15 9.1 94.0 1010.9 1.6 N 8.0 0.0
02:20 9.1 94.0 1010.8 6.4 N 9.7 0.0
02:25 9.1 94.0 1010.9 3.2 N 9.7 0.0
02:30 9.1 94.0 1010.8 6.4 N 9.7 0.0
02:35 9.1 94.0 1010.8 8.0 N 9.7 0.0
02:40 9.1 94.0 1010.8 3.2 N 8.0 0.0
02:45 9.1 94.0 1010.7 8.0 N 9.7 0.0
02:50 9.1 94.0 1010.9 3.2 N 9.7 0.0
02:55 9.1 94.0 1010.9 1.6 N 9.7 0.0
03:00 9.1 94.0 1010.8 1.6 N 8.0 0.0
03:05 9.1 94.0 1010.8 3.2 N 6.4 0.0
03:10 9.1 94.0 1010.9 3.2 N 8.0 0.0
03:15 9.1 94.0 1010.9 4.8 N 8.0 0.0
03:20 9.1 94.0 1010.7 0.0 N 8.0 0.0
03:25 9.1 94.0 1010.7 4.8 N 8.0 0.0
03:30 9.1 94.0 1010.7 6.4 N 8.0 0.0
03:35 9.1 94.0 1010.7 6.4 N 12.9 0.0
03:40 9.1 94.0 1010.8 1.6 N 12.9 0.0
03:45 9.1 94.0 1010.7 4.8 N 9.7 0.0
03:50 9.1 94.0 1010.6 4.8 N 8.0 0.0
03:55 9.1 94.0 1010.6 8.0 N 8.0 0.0
04:00 9.1 94.0 1010.5 4.8 N 9.7 0.0
04:05 9.1 94.0 1010.4 4.8 N 9.7 0.0
04:10 9.2 94.0 1010.3 6.4 N 9.7 0.0
04:15 9.1 94.0 1010.3 4.8 N 9.7 0.0
04:20 9.2 94.0 1010.3 4.8 N 9.7 0.2
04:25 9.1 94.0 1010.3 4.8 N 9.7 0.0
04:30 9.2 94.0 1010.4 4.8 N 9.7 0.0
04:35 9.2 94.0 1010.4 3.2 N 8.0 0.0
04:40 9.2 94.0 1010.1 6.4 N 9.7 0.0
04:45 9.2 94.0 1010.2 3.2 N 9.7 0.0
04:50 9.3 94.0 1010.1 6.4 N 9.7 0.0
04:55 9.4 94.0 1010.2 3.2 N 9.7 0.0
05:00 9.4 94.0 1010.3 4.8 N 8.0 0.0
05:05 9.4 94.0 1010.4 6.4 N 8.0 0.0
05:10 9.4 94.0 1010.4 1.6 N 8.0 0.0
05:15 9.4 94.0 1010.3 8.0 N 8.0 0.0
05:20 9.4 94.0 1010.1 6.4 N 9.7 0.0
05:25 9.4 94.0 1010.2 4.8 N 9.7 0.0
05:30 9.5 94.0 1010.1 6.4 N 11.3 0.0
05:35 9.5 94.0 1010.1 4.8 N 11.3 0.0
05:40 9.5 94.0 1010.0 9.7 N 9.7 0.0
05:45 9.6 94.0 1010.2 9.7 N 11.3 0.0
05:50 9.6 95.0 1010.3 1.6 N 11.3 0.0
05:55 9.7 94.0 1010.1 4.8 N 9.7 0.0
06:00 9.7 94.0 1010.2 4.8 N 9.7 0.0
06:05 9.7 95.0 1010.1 1.6 N 11.3 0.0
06:10 9.8 94.0 1010.2 4.8 N 9.7 0.0
06:15 9.7 94.0 1010.2 3.2 N 8.0 0.0
06:20 9.7 94.0 1010.3 4.8 N 8.0 0.0
06:25 9.8 94.0 1010.3 6.4 N 8.0 0.0
06:30 9.7 94.0 1010.2 3.2 N 9.7 0.0
06:35 9.8 94.0 1010.3 3.2 N 9.7 0.0
06:40 9.8 94.0 1010.2 6.4 N 12.9 0.0
06:45 9.8 94.0 1010.3 1.6 N 12.9 0.0
06:50 9.8 94.0 1010.1 3.2 N 12.9 0.0
06:55 9.9 94.0 1009.9 6.4 N 12.9 0.0
07:00 9.9 94.0 1010.0 8.0 N 11.3 0.0
07:05 10.0 94.0 1010.1 0.0 N 11.3 0.0
07:10 10.3 94.0 1010.1 0.0 N 8.0 0.0
07:15 10.3 94.0 1010.2 0.0 N 0.0 0.0
07:20 10.4 94.0 1010.2 0.0 N 0.0 0.0
07:25 10.6 94.0 1010.3 0.0 N 0.0 0.0
07:30 10.6 93.0 1010.4 0.0 N 0.0 0.0
07:35 10.7 93.0 1010.2 0.0 N 0.0 0.0
07:40 10.9 92.0 1010.6 0.0 N 0.0 0.0
07:45 11.1 92.0 1010.4 0.0 N 0.0 0.0
07:50 11.3 92.0 1010.5 0.0 N 0.0 0.0
07:55 11.6 92.0 1010.5 0.0 N 0.0 0.0
08:00 11.9 91.0 1010.3 0.0 N 6.4 0.0
08:05 12.1 90.0 1010.4 0.0 N 6.4 0.0
08:10 12.4 90.0 1010.6 1.6 N 4.8 0.0
08:15 12.8 89.0 1010.3 3.2 N 6.4 0.0
08:20 13.0 89.0 1010.3 1.6 N 6.4 0.0
08:25 13.2 86.0 1010.2 4.8 N 6.4 0.0
08:30 13.3 85.0 1010.4 4.8 N 6.4 0.0
08:35 13.4 84.0 1010.4 3.2 N 8.0 0.0
08:40 13.6 82.0 1010.6 1.6 N 9.7 0.0
08:45 13.6 82.0 1010.5 1.6 N 9.7 0.0
08:50 13.6 82.0 1010.4 0.0 N 4.8 0.0
08:55 13.3 81.0 1010.5 1.6 N 6.4 0.0
09:00 13.2 83.0 1010.5 1.6 N 6.4 0.0
09:05 13.3 82.0 1010.5 3.2 N 4.8 0.0
09:10 13.2 82.0 1010.6 3.2 N 4.8 0.0
09:15 13.3 82.0 1010.5 0.0 N 4.8 0.0
09:20 13.6 82.0 1010.6 0.0 N 8.0 0.0
09:25 14.0 82.0 1010.5 0.0 N 8.0 0.0
09:30 14.6 80.0 1010.6 6.4 N 9.7 0.0
09:35 14.6 78.0 1010.6 4.8 N 9.7 0.0
09:40 14.5 78.0 1010.6 4.8 N 8.0 0.0
09:45 14.4 80.0 1010.8 0.0 N 8.0 0.0
09:50 14.3 79.0 1010.8 0.0 N 6.4 0.0
09:55 14.3 80.0 1010.8 0.0 N 6.4 0.0
10:00 14.5 78.0 1010.8 1.6 N 4.8 0.0
10:05 14.9 79.0 1010.9 1.6 N 4.8 0.0
10:10 15.3 76.0 1010.9 1.6 N 8.0 0.0
10:15 15.4 76.0 1010.7 4.8 N 8.0 0.0
10:20 15.6 76.0 1010.7 1.6 N 8.0 0.0
10:25 15.7 75.0 1010.7 1.6 N 4.8 0.0
10:30 15.8 76.0 1010.6 1.6 N 4.8 0.0
10:35 15.7 75.0 1010.6 1.6 N 8.0 0.0
10:40 15.7 75.0 1010.6 3.2 N 8.0 0.0
Máxima 15.8 95.0 1011.9 9.7 N 12.9 0.2
Mínima 9.1 75.0 1009.9
Total 0.2